W5TTY Weather Reports


Display with metric or nautical units.
time (UTC)temp
F
wind
direction
speed
MPH
gust
MPH
rain 1hr
in
rain 24hr
in
rain mn
in
humidity
%
barometer
mb
20260505230332 84 191 8.0 16.0 0.00 0.00 0.00 79 1004.9
20260505225837 84 169 6.0 20.0 0.00 0.00 0.00 79 1004.9
20260505225323 84 145 7.0 20.0 0.00 0.00 0.00 79 1004.8
20260505224835 84 176 10.0 21.0 0.00 0.00 0.00 79 1004.9
20260505224320 84 201 6.0 19.0 0.00 0.00 0.00 80 1004.9
20260505223828 85 221 10.0 19.0 0.00 0.00 0.00 80 1004.9
20260505223337 84 138 9.0 19.0 0.00 0.00 0.00 80 1005.0
20260505222852 84 199 9.0 18.0 0.00 0.00 0.00 80 1005.0
20260505222402 85 221 8.0 18.0 0.00 0.00 0.00 80 1005.1
20260505221849 85 209 8.0 17.0 0.00 0.00 0.00 80 1005.0
20260505221339 85 169 7.0 17.0 0.00 0.00 0.00 80 1005.1
20260505220852 85 142 8.0 19.0 0.00 0.00 0.00 81 1005.2
20260505220320 85 229 7.0 21.0 0.00 0.00 0.00 81 1005.2
20260505215823 85 207 11.0 21.0 0.00 0.00 0.00 81 1005.1
20260505215332 85 233 8.0 17.0 0.00 0.00 0.00 81 1005.3
20260505214817 85 212 6.0 15.0 0.00 0.00 0.00 81 1005.4
20260505214321 85 141 7.0 17.0 0.00 0.00 0.00 82 1005.4
20260505213853 85 180 8.0 17.0 0.00 0.00 0.00 82 1005.4
20260505213347 85 172 10.0 17.0 0.00 0.00 0.00 82 1005.4
20260505212833 85 187 7.0 16.0 0.00 0.00 0.00 82 1005.5
20260505212337 84 211 6.0 15.0 0.00 0.00 0.00 82 1005.5
20260505211822 85 207 7.0 14.0 0.00 0.00 0.00 82 1005.6
20260505211333 85 135 10.0 14.0 0.00 0.00 0.00 82 1005.7
20260505210833 85 173 9.0 16.0 0.00 0.00 0.00 83 1005.7
20260505210319 85 197 9.0 18.0 0.00 0.00 0.00 83 1005.8
20260505205832 84 238 6.0 17.0 0.00 0.00 0.00 83 1005.9
20260505205336 84 225 7.0 14.0 0.00 0.00 0.00 83 1006.1
20260505204820 84 211 8.0 19.0 0.00 0.00 0.00 83 1006.3
20260505204331 84 211 12.0 19.0 0.00 0.00 0.00 83 1006.5
20260505203838 84 219 6.0 17.0 0.00 0.00 0.00 84 1006.5
20260505203324 84 219 9.0 19.0 0.00 0.00 0.00 84 1006.5
20260505202838 84 172 9.0 19.0 0.00 0.00 0.00 84 1006.6
20260505202325 84 202 11.0 17.0 0.00 0.00 0.00 84 1006.6
20260505201831 84 222 8.0 20.0 0.00 0.00 0.00 84 1006.7
20260505201337 84 220 12.0 20.0 0.00 0.00 0.00 84 1006.7
20260505200828 84 248 11.0 20.0 0.00 0.00 0.00 85 1006.8
20260505200333 83 222 7.0 22.0 0.00 0.00 0.00 85 1006.8
20260505195824 83 240 13.0 22.0 0.00 0.00 0.00 85 1006.9
20260505195331 83 232 10.0 18.0 0.00 0.00 0.00 85 1006.9
20260505194845 83 200 11.0 24.0 0.00 0.00 0.00 85 1007.1
20260505194330 83 240 9.0 24.0 0.00 0.00 0.00 85 1007.0
20260505193842 83 221 9.0 25.0 0.00 0.00 0.00 85 1007.1
20260505193356 83 194 12.0 25.0 0.00 0.00 0.00 85 1007.2
20260505192823 83 240 10.0 19.0 0.00 0.00 0.00 85 1007.3
20260505192323 82 208 7.0 27.0 0.00 0.00 0.00 86 1007.3
20260505191854 82 202 9.0 27.0 0.00 0.00 0.00 86 1007.3
20260505191344 82 229 8.0 19.0 0.00 0.00 0.00 86 1007.4
20260505190826 82 211 12.0 20.0 0.00 0.00 0.00 86 1007.5
20260505190338 81 230 11.0 18.0 0.00 0.00 0.00 86 1007.5
20260505185847 81 227 9.0 19.0 0.00 0.00 0.00 86 1007.6
20260505185330 81 218 9.0 21.0 0.00 0.00 0.00 86 1007.6
20260505184817 81 208 10.0 23.0 0.00 0.00 0.00 86 1007.6
20260505184323 81 182 6.0 23.0 0.00 0.00 0.00 86 1007.7
20260505183839 81 195 8.0 19.0 0.00 0.00 0.00 86 1007.6
20260505183345 80 209 9.0 20.0 0.00 0.00 0.00 86 1007.6
20260505182834 80 232 8.0 21.0 0.00 0.00 0.00 86 1007.6
20260505182320 80 252 11.0 21.0 0.00 0.00 0.00 86 1007.7
20260505181826 80 212 10.0 18.0 0.00 0.00 0.00 86 1007.7
20260505181358 79 214 9.0 20.0 0.00 0.00 0.00 86 1007.7
20260505180848 79 184 10.0 20.0 0.00 0.00 0.00 86 1007.8
20260505180334 79 197 9.0 22.0 0.00 0.00 0.00 86 1007.8
20260505175821 79 234 10.0 22.0 0.00 0.00 0.00 86 1007.7
20260505175328 79 223 7.0 16.0 0.00 0.00 0.00 86 1007.8
20260505174833 79 207 8.0 22.0 0.00 0.00 0.00 86 1007.8
20260505174317 78 140 13.0 22.0 0.00 0.00 0.00 86 1007.9
20260505173828 78 223 8.0 17.0 0.00 0.00 0.00 86 1007.9
20260505173334 78 190 8.0 17.0 0.00 0.00 0.00 86 1008.0
20260505172846 78 202 9.0 18.0 0.00 0.00 0.00 86 1008.1
20260505172331 77 227 6.0 15.0 0.00 0.00 0.00 86 1008.1
20260505171820 77 213 7.0 15.0 0.00 0.00 0.00 86 1008.1
20260505171325 77 238 8.0 16.0 0.00 0.00 0.00 86 1008.2
20260505170836 76 211 6.0 14.0 0.00 0.00 0.00 86 1008.2
20260505170324 76 190 6.0 15.0 0.00 0.00 0.00 86 1008.4
20260505165829 76 232 7.0 15.0 0.00 0.00 0.00 86 1008.3
20260505165319 76 213 6.0 16.0 0.00 0.00 0.00 86 1008.3
20260505164828 76 180 8.0 16.0 0.00 0.00 0.00 86 1008.2
20260505164339 76 212 8.0 14.0 0.00 0.00 0.00 86 1008.3
20260505163824 76 186 6.0 20.0 0.00 0.00 0.00 86 1008.2
20260505163357 76 236 10.0 22.0 0.00 0.00 0.00 86 1008.3
20260505162819 75 180 8.0 20.0 0.00 0.00 0.00 86 1008.3
20260505162347 75 198 7.0 19.0 0.00 0.00 0.00 85 1008.3
20260505161833 75 178 7.0 19.0 0.00 0.00 0.00 85 1008.3
20260505161319 75 217 7.0 17.0 0.00 0.00 0.00 85 1008.3
20260505160831 75 174 8.0 16.0 0.00 0.00 0.00 86 1008.3
20260505160318 75 207 9.0 15.0 0.00 0.00 0.00 86 1008.3
20260505153348 74 199 9.0 15.0 0.00 0.00 0.00 85 1008.6
20260505152822 74 229 8.0 15.0 0.00 0.00 0.00 85 1008.6
20260505152327 74 218 6.0 16.0 0.00 0.00 0.00 85 1008.6
20260505151840 74 215 6.0 20.0 0.00 0.00 0.00 85 1008.5
20260505151347 74 218 7.0 20.0 0.00 0.00 0.00 85 1008.5
20260505150840 74 192 6.0 18.0 0.00 0.00 0.00 85 1008.4
20260505150328 74 164 7.0 18.0 0.00 0.00 0.00 85 1008.4
20260505140324 72 219 5.0 16.0 0.00 0.00 0.00 84 1008.0
20260505124841 71 164 4.0 12.0 0.00 0.00 0.00 83 1007.7
20260505124326 71 169 6.0 10.0 0.00 0.00 0.00 83 1007.7
20260505123829 71 196 4.0 12.0 0.00 0.00 0.00 83 1007.5
20260505123347 71 178 6.0 15.0 0.00 0.00 0.00 83 1007.6
20260505122831 71 201 7.0 15.0 0.00 0.00 0.00 83 1007.5
20260505122321 71 225 5.0 13.0 0.00 0.00 0.00 83 1007.6
20260505121825 71 224 7.0 13.0 0.00 0.00 0.00 83 1007.5
20260505121317 71 208 6.0 14.0 0.00 0.00 0.00 83 1007.6
20260505120818 71 231 7.0 16.0 0.00 0.00 0.00 82 1007.4
20260505120322 71 218 7.0 16.0 0.00 0.00 0.00 82 1007.3
20260505115820 71 190 6.0 17.0 0.00 0.00 0.00 82 1007.4
20260505115322 71 199 6.0 17.0 0.00 0.00 0.00 82 1007.2
20260505114835 71 232 6.0 13.0 0.00 0.00 0.00 82 1007.0
20260505114318 71 221 7.0 17.0 0.00 0.00 0.00 82 1007.0
20260505113822 71 161 6.0 20.0 0.00 0.00 0.00 82 1007.1
20260505113338 71 210 6.0 20.0 0.00 0.00 0.00 82 1007.3
20260505112826 71 204 7.0 16.0 0.00 0.00 0.00 82 1007.3
20260505112327 71 186 8.0 18.0 0.00 0.00 0.00 82 1007.1
20260505111841 71 192 7.0 16.0 0.00 0.00 0.00 82 1007.0
20260505111330 71 199 6.0 16.0 0.00 0.00 0.00 82 1006.9
20260505032326 73 171 5.0 17.0 0.00 0.00 0.00 71 1009.2
20260505031829 73 169 5.0 9.0 0.00 0.00 0.00 71 1009.0
20260505031333 73 180 5.0 9.0 0.00 0.00 0.00 71 1009.1
20260505030837 73 180 4.0 10.0 0.00 0.00 0.00 71 1008.9
20260505030321 73 150 4.0 10.0 0.00 0.00 0.00 71 1008.9
20260505025826 73 182 5.0 10.0 0.00 0.00 0.00 71 1008.9
20260505025333 74 148 6.0 10.0 0.00 0.00 0.00 70 1009.0
20260505024840 74 188 6.0 11.0 0.00 0.00 0.00 70 1009.0
20260505024325 74 112 6.0 11.0 0.00 0.00 0.00 70 1009.0
20260505023850 74 165 5.0 11.0 0.00 0.00 0.00 70 1008.9
20260505023343 74 169 6.0 11.0 0.00 0.00 0.00 70 1008.8
20260505022847 74 146 5.0 10.0 0.00 0.00 0.00 70 1008.9
20260505022329 74 151 6.0 10.0 0.00 0.00 0.00 70 1008.9
20260505021834 74 167 6.0 10.0 0.00 0.00 0.00 69 1008.8
20260505021321 74 164 4.0 11.0 0.00 0.00 0.00 69 1008.8
20260505020828 74 198 6.0 12.0 0.00 0.00 0.00 69 1008.8
20260505020334 75 169 5.0 13.0 0.00 0.00 0.00 69 1008.8
20260505015819 75 152 7.0 13.0 0.00 0.00 0.00 69 1008.7
20260505015323 75 219 6.0 13.0 0.00 0.00 0.00 69 1008.6
20260505014827 75 169 6.0 14.0 0.00 0.00 0.00 68 1008.5
20260505014352 75 164 5.0 11.0 0.00 0.00 0.00 68 1008.5
20260505013837 75 162 7.0 10.0 0.00 0.00 0.00 68 1008.6
20260505013324 76 170 5.0 10.0 0.00 0.00 0.00 68 1008.5
20260505012829 76 184 5.0 12.0 0.00 0.00 0.00 68 1008.6
20260505012337 76 140 7.0 12.0 0.00 0.00 0.00 68 1008.5
20260505011824 76 159 4.0 10.0 0.00 0.00 0.00 68 1008.6
20260505011329 76 200 6.0 17.0 0.00 0.00 0.00 68 1008.5
20260505010903 76 164 6.0 17.0 0.00 0.00 0.00 68 1008.4
20260505010327 76 173 6.0 11.0 0.00 0.00 0.00 68 1008.5
20260505005836 76 166 6.0 10.0 0.00 0.00 0.00 67 1008.4
20260505005322 77 131 7.0 14.0 0.00 0.00 0.00 67 1008.4
20260505004828 77 146 5.0 13.0 0.00 0.00 0.00 67 1008.3
20260505004333 77 186 6.0 13.0 0.00 0.00 0.00 67 1008.4
20260505003823 77 144 5.0 11.0 0.00 0.00 0.00 67 1008.4
20260505003329 77 126 6.0 12.0 0.00 0.00 0.00 67 1008.4
20260505002837 78 117 4.0 12.0 0.00 0.00 0.00 67 1008.4
20260505002337 78 202 6.0 10.0 0.00 0.00 0.00 67 1008.6
20260505001823 78 138 5.0 10.0 0.00 0.00 0.00 67 1008.7
20260505001325 78 190 5.0 14.0 0.00 0.00 0.00 67 1008.7
20260505000831 78 117 9.0 14.0 0.00 0.00 0.00 67 1008.7
20260505000340 78 187 6.0 15.0 0.00 0.00 0.00 67 1008.7
20260504235852 79 192 7.0 15.0 0.00 0.00 0.00 67 1008.8
20260504235332 79 153 7.0 15.0 0.00 0.00 0.00 67 1008.9
20260504234820 79 204 5.0 15.0 0.00 0.00 0.00 67 1008.9
20260504234329 79 133 8.0 15.0 0.00 0.00 0.00 67 1008.8
20260504233838 79 192 6.0 13.0 0.00 0.00 0.00 67 1008.9
20260504233327 79 182 7.0 15.0 0.00 0.00 0.00 67 1009.0
20260504232832 79 198 8.0 16.0 0.00 0.00 0.00 67 1008.9
20260504232318 79 199 6.0 16.0 0.00 0.00 0.00 67 1008.9
20260504231827 79 178 6.0 14.0 0.00 0.00 0.00 67 1009.0
20260504231351 79 149 6.0 12.0 0.00 0.00 0.00 67 1008.9
20260504230817 79 157 6.0 12.0 0.00 0.00 0.00 67 1008.8